Time,TemperatureF,DewpointF,PressureIn,WindDirection,WindDirectionDegrees,WindSpeedMPH,WindSpeedGustMPH,Humidity,HourlyPrecipIn,Conditions,Clouds,dailyrainin,SolarRadiationWatts/m^2,SoftwareType,DateUTC
2013-09-07 00:00:00,61.4,58.8,30.13,ENE,71,0.0,1.0,91,0.00,,FEW070,0.00,0.00,VWS V14.01,2013-09-07 04:00:00,
2013-09-07 00:01:00,61.4,58.8,30.13,ENE,71,0.0,0.0,91,0.00,,FEW045,0.00,0.00,VWS V14.01,2013-09-07 04:01:00,
2013-09-07 00:05:00,61.3,58.7,30.13,ENE,71,0.0,0.0,91,0.00,,FEW070,0.00,0.00,VWS V14.01,2013-09-07 04:05:00,
2013-09-07 00:06:00,61.3,58.7,30.12,ENE,71,0.0,0.0,91,0.00,,FEW045,0.00,0.00,VWS V14.01,2013-09-07 04:06:00,
2013-09-07 00:10:00,61.2,58.6,30.12,ENE,71,0.0,0.0,91,0.00,,FEW070,0.00,0.00,VWS V14.01,2013-09-07 04:10:00,
2013-09-07 00:11:00,61.3,58.7,30.13,ENE,71,0.0,0.0,91,0.00,,FEW045,0.00,0.00,VWS V14.01,2013-09-07 04:11:00,
2013-09-07 00:15:00,61.4,59.1,30.13,ENE,71,0.0,1.0,92,0.00,,FEW070,0.00,0.00,VWS V14.01,2013-09-07 04:15:00,
2013-09-07 00:16:00,61.4,59.1,30.13,ENE,71,0.0,0.0,92,0.00,,FEW045,0.00,0.00,VWS V14.01,2013-09-07 04:16:00,
2013-09-07 00:20:00,61.5,59.2,30.13,ENE,71,0.0,0.0,92,0.00,,FEW070,0.00,0.00,VWS V14.01,2013-09-07 04:20:00,
2013-09-07 00:21:00,61.4,58.8,30.13,ENE,71,0.0,0.0,91,0.00,,FEW045,0.00,0.00,VWS V14.01,2013-09-07 04:21:00,
2013-09-07 00:25:00,61.3,58.7,30.13,ENE,71,0.0,0.0,91,0.00,,FEW070,0.00,0.00,VWS V14.01,2013-09-07 04:25:00,
2013-09-07 00:26:00,61.3,58.7,30.13,ENE,71,0.0,0.0,91,0.00,,FEW045,0.00,0.00,VWS V14.01,2013-09-07 04:26:00,
2013-09-07 00:30:00,61.2,58.6,30.12,ENE,71,0.0,0.0,91,0.00,,FEW070,0.00,0.00,VWS V14.01,2013-09-07 04:30:00,
2013-09-07 00:31:00,61.1,58.8,30.12,ENE,71,0.0,0.0,92,0.00,,FEW045,0.00,0.00,VWS V14.01,2013-09-07 04:31:00,
2013-09-07 00:35:00,61.1,58.8,30.12,ENE,71,0.0,0.0,92,0.00,,FEW070,0.00,0.00,VWS V14.01,2013-09-07 04:35:00,
2013-09-07 00:36:00,61.0,58.7,30.13,ENE,71,0.0,0.0,92,0.00,,FEW045,0.00,0.00,VWS V14.01,2013-09-07 04:36:00,
2013-09-07 00:40:00,60.9,58.6,30.13,ENE,71,0.0,0.0,92,0.00,,FEW070,0.00,0.00,VWS V14.01,2013-09-07 04:40:00,
2013-09-07 00:41:00,60.8,58.5,30.13,ENE,71,0.0,0.0,92,0.00,,FEW045,0.00,0.00,VWS V14.01,2013-09-07 04:41:00,
2013-09-07 00:45:00,60.7,58.4,30.13,ENE,71,0.0,0.0,92,0.00,,FEW070,0.00,0.00,VWS V14.01,2013-09-07 04:45:00,
2013-09-07 00:46:00,60.7,58.7,30.13,ENE,71,0.0,0.0,93,0.00,,FEW045,0.00,0.00,VWS V14.01,2013-09-07 04:46:00,
2013-09-07 00:50:00,60.7,58.7,30.13,ENE,71,0.0,0.0,93,0.00,,FEW070,0.00,0.00,VWS V14.01,2013-09-07 04:50:00,
2013-09-07 00:51:00,60.7,58.7,30.13,ENE,71,0.0,0.0,93,0.00,,FEW045,0.00,0.00,VWS V14.01,2013-09-07 04:51:00,
2013-09-07 00:55:00,60.6,58.6,30.13,ENE,71,0.0,0.0,93,0.00,,FEW070,0.00,0.00,VWS V14.01,2013-09-07 04:55:00,
2013-09-07 00:56:00,60.5,58.5,30.13,ENE,71,0.0,0.0,93,0.00,,FEW045,0.00,0.00,VWS V14.01,2013-09-07 04:56:00,
2013-09-07 01:00:00,60.4,58.4,30.13,ENE,71,0.0,0.0,93,0.00,,FEW070,0.00,0.00,VWS V14.01,2013-09-07 05:00:00,
2013-09-07 01:01:00,60.4,58.4,30.13,ENE,71,0.0,0.0,93,0.00,,FEW045,0.00,0.00,VWS V14.01,2013-09-07 05:01:00,
2013-09-07 01:05:00,60.3,58.3,30.13,ENE,71,0.0,0.0,93,0.00,,FEW070,0.00,0.00,VWS V14.01,2013-09-07 05:05:00,
2013-09-07 01:06:00,60.4,58.4,30.13,ENE,71,0.0,0.0,93,0.00,,FEW045,0.00,0.00,VWS V14.01,2013-09-07 05:06:00,
2013-09-07 01:10:00,60.3,58.3,30.13,ENE,71,0.0,0.0,93,0.00,,FEW070,0.00,0.00,VWS V14.01,2013-09-07 05:10:00,
2013-09-07 01:11:00,60.3,58.3,30.13,ENE,71,0.0,0.0,93,0.00,,FEW045,0.00,0.00,VWS V14.01,2013-09-07 05:11:00,
2013-09-07 01:15:00,60.3,58.6,30.12,ENE,71,0.0,0.0,94,0.00,,FEW070,0.00,0.00,VWS V14.01,2013-09-07 05:15:00,
2013-09-07 01:16:00,60.4,59.0,30.12,ENE,71,0.0,0.0,95,0.00,,FEW045,0.00,0.00,VWS V14.01,2013-09-07 05:16:00,
2013-09-07 01:20:00,60.4,59.0,30.12,ENE,71,0.0,0.0,95,0.00,,FEW070,0.00,0.00,VWS V14.01,2013-09-07 05:20:00,
2013-09-07 01:21:00,60.4,59.0,30.12,ENE,71,0.0,0.0,95,0.00,,FEW045,0.00,0.00,VWS V14.01,2013-09-07 05:21:00,
2013-09-07 01:25:00,60.3,58.9,30.12,ENE,71,0.0,0.0,95,0.00,,FEW045,0.00,0.00,VWS V14.01,2013-09-07 05:25:00,
2013-09-07 01:30:00,60.2,58.5,30.12,ENE,71,0.0,0.0,94,0.00,,FEW045,0.00,0.00,VWS V14.01,2013-09-07 05:30:00,
2013-09-07 01:35:00,60.0,58.3,30.12,ENE,71,0.0,0.0,94,0.00,,FEW045,0.00,0.00,VWS V14.01,2013-09-07 05:35:00,
2013-09-07 01:40:00,59.9,58.2,30.12,ENE,71,0.0,0.0,94,0.00,,FEW045,0.00,0.00,VWS V14.01,2013-09-07 05:40:00,
2013-09-07 01:45:00,59.9,58.2,30.12,ENE,71,0.0,0.0,94,0.00,,FEW045,0.00,0.00,VWS V14.01,2013-09-07 05:45:00,
2013-09-07 01:50:00,60.0,58.6,30.11,ENE,71,0.0,0.0,95,0.00,,FEW045,0.00,0.00,VWS V14.01,2013-09-07 05:50:00,
2013-09-07 01:55:00,59.8,58.4,30.11,ENE,71,0.0,0.0,95,0.00,,FEW045,0.00,0.00,VWS V14.01,2013-09-07 05:55:00,
2013-09-07 02:00:00,59.6,58.2,30.11,ENE,71,0.0,0.0,95,0.00,,FEW045,0.00,0.00,VWS V14.01,2013-09-07 06:00:00,
2013-09-07 02:05:00,59.6,58.2,30.11,ENE,71,0.0,0.0,95,0.00,,FEW050,0.00,0.00,VWS V14.01,2013-09-07 06:05:00,
2013-09-07 02:10:00,59.8,58.7,30.11,ENE,71,0.0,0.0,96,0.00,,FEW050,0.00,0.00,VWS V14.01,2013-09-07 06:10:00,
2013-09-07 02:15:00,59.7,58.3,30.11,ENE,71,0.0,1.0,95,0.00,,FEW050,0.00,0.00,VWS V14.01,2013-09-07 06:15:00,
2013-09-07 02:20:00,59.7,58.3,30.11,ENE,71,0.0,0.0,95,0.00,,FEW050,0.00,0.00,VWS V14.01,2013-09-07 06:20:00,
2013-09-07 02:25:00,59.7,58.6,30.11,ENE,71,0.0,0.0,96,0.00,,FEW050,0.00,0.00,VWS V14.01,2013-09-07 06:25:00,
2013-09-07 02:30:00,59.6,58.2,30.11,ENE,71,0.0,0.0,95,0.00,,FEW050,0.00,0.00,VWS V14.01,2013-09-07 06:30:00,
2013-09-07 02:35:00,59.5,58.4,30.11,ENE,71,0.0,0.0,96,0.00,,FEW050,0.00,0.00,VWS V14.01,2013-09-07 06:35:00,
2013-09-07 02:40:00,59.6,58.5,30.11,ENE,71,0.0,0.0,96,0.00,,FEW050,0.00,0.00,VWS V14.01,2013-09-07 06:40:00,
2013-09-07 02:45:00,59.7,58.8,30.11,ENE,71,0.0,0.0,97,0.00,,FEW050,0.00,0.00,VWS V14.01,2013-09-07 06:45:00,
2013-09-07 02:50:00,59.6,58.5,30.11,ENE,71,0.0,0.0,96,0.00,,FEW050,0.00,0.00,VWS V14.01,2013-09-07 06:50:00,
2013-09-07 02:55:00,59.4,58.5,30.11,ENE,71,0.0,0.0,97,0.00,,FEW050,0.00,0.00,VWS V14.01,2013-09-07 06:55:00,
2013-09-07 03:00:00,59.4,58.5,30.11,ENE,71,0.0,1.0,97,0.00,,FEW050,0.00,0.00,VWS V14.01,2013-09-07 07:00:00,
2013-09-07 03:05:00,59.4,58.3,30.11,ENE,71,0.0,0.0,96,0.00,,FEW050,0.00,0.00,VWS V14.01,2013-09-07 07:05:00,
2013-09-07 03:10:00,59.3,58.2,30.11,ENE,71,0.0,0.0,96,0.00,,FEW050,0.00,0.00,VWS V14.01,2013-09-07 07:10:00,
2013-09-07 03:15:00,59.3,58.5,30.10,ENE,71,0.0,0.0,97,0.00,,FEW050,0.00,0.00,VWS V14.01,2013-09-07 07:15:00,
2013-09-07 03:20:00,59.2,58.3,30.10,ENE,71,0.0,0.0,97,0.00,,FEW050,0.00,0.00,VWS V14.01,2013-09-07 07:20:00,
2013-09-07 03:25:00,59.1,58.0,30.10,ENE,71,0.0,0.0,96,0.00,,FEW050,0.00,0.00,VWS V14.01,2013-09-07 07:25:00,
2013-09-07 03:30:00,58.9,57.8,30.10,ENE,71,0.0,0.0,96,0.00,,FEW050,0.00,0.00,VWS V14.01,2013-09-07 07:30:00,
2013-09-07 03:35:00,58.7,57.6,30.10,ENE,71,0.0,0.0,96,0.00,,FEW050,0.00,0.00,VWS V14.01,2013-09-07 07:35:00,
2013-09-07 03:40:00,58.7,57.8,30.10,ENE,71,0.0,0.0,97,0.00,,FEW050,0.00,0.00,VWS V14.01,2013-09-07 07:40:00,
2013-09-07 03:45:00,58.7,57.6,30.10,ENE,71,0.0,0.0,96,0.00,,FEW050,0.00,0.00,VWS V14.01,2013-09-07 07:45:00,
2013-09-07 03:50:00,58.7,57.6,30.10,ENE,71,0.0,0.0,96,0.00,,FEW050,0.00,0.00,VWS V14.01,2013-09-07 07:50:00,
2013-09-07 03:55:00,58.7,57.8,30.10,ENE,71,0.0,0.0,97,0.00,,FEW050,0.00,0.00,VWS V14.01,2013-09-07 07:55:00,
2013-09-07 04:00:00,58.6,57.5,30.10,ENE,71,0.0,0.0,96,0.00,,FEW050,0.00,0.00,VWS V14.01,2013-09-07 08:00:00,
2013-09-07 04:05:00,58.4,57.3,30.10,ENE,71,0.0,0.0,96,0.00,,FEW050,0.00,0.00,VWS V14.01,2013-09-07 08:05:00,
2013-09-07 04:10:00,58.3,57.2,30.10,ENE,71,0.0,0.0,96,0.00,,FEW050,0.00,0.00,VWS V14.01,2013-09-07 08:10:00,
2013-09-07 04:15:00,58.3,57.2,30.10,ENE,71,0.0,0.0,96,0.00,,FEW050,0.00,0.00,VWS V14.01,2013-09-07 08:15:00,
2013-09-07 04:20:00,58.4,57.3,30.10,ENE,71,0.0,0.0,96,0.00,,FEW050,0.00,0.00,VWS V14.01,2013-09-07 08:20:00,
2013-09-07 04:25:00,58.4,57.3,30.10,ENE,71,0.0,0.0,96,0.00,,FEW050,0.00,0.00,VWS V14.01,2013-09-07 08:25:00,
2013-09-07 04:30:00,58.2,57.1,30.10,ENE,71,0.0,0.0,96,0.00,,FEW050,0.00,0.00,VWS V14.01,2013-09-07 08:30:00,
2013-09-07 04:35:00,58.2,57.1,30.10,ENE,71,0.0,0.0,96,0.00,,FEW050,0.00,0.00,VWS V14.01,2013-09-07 08:35:00,
2013-09-07 04:40:00,58.1,57.0,30.10,ENE,71,0.0,0.0,96,0.00,,FEW050,0.00,0.00,VWS V14.01,2013-09-07 08:40:00,
2013-09-07 04:45:00,58.0,56.9,30.10,ENE,71,0.0,0.0,96,0.00,,FEW050,0.00,0.00,VWS V14.01,2013-09-07 08:45:00,
2013-09-07 04:50:00,58.0,56.9,30.10,ENE,71,0.0,0.0,96,0.00,,FEW050,0.00,0.00,VWS V14.01,2013-09-07 08:50:00,
2013-09-07 04:55:00,58.0,56.9,30.10,ENE,71,0.0,0.0,96,0.00,,FEW050,0.00,0.00,VWS V14.01,2013-09-07 08:55:00,
2013-09-07 05:00:00,58.0,57.2,30.10,ENE,71,0.0,0.0,97,0.00,,FEW050,0.00,0.00,VWS V14.01,2013-09-07 09:00:00,
2013-09-07 05:05:00,58.0,56.9,30.10,ENE,71,0.0,0.0,96,0.00,,SCT055,0.00,0.00,VWS V14.01,2013-09-07 09:05:00,
2013-09-07 05:10:00,58.0,57.2,30.10,ENE,71,0.0,0.0,97,0.00,,SCT055,0.00,0.00,VWS V14.01,2013-09-07 09:10:00,
2013-09-07 05:15:00,58.0,56.9,30.10,ENE,71,0.0,1.0,96,0.00,,SCT055,0.00,0.00,VWS V14.01,2013-09-07 09:15:00,
2013-09-07 05:20:00,58.0,57.2,30.10,ENE,71,0.0,0.0,97,0.00,,SCT055,0.00,0.00,VWS V14.01,2013-09-07 09:20:00,
2013-09-07 05:25:00,58.0,57.2,30.10,ENE,71,0.0,0.0,97,0.00,,SCT055,0.00,0.00,VWS V14.01,2013-09-07 09:25:00,
2013-09-07 05:30:00,58.1,57.3,30.10,ENE,71,0.0,0.0,97,0.00,,SCT055,0.00,0.00,VWS V14.01,2013-09-07 09:30:00,
2013-09-07 05:35:00,58.0,57.2,30.10,ENE,71,0.0,0.0,97,0.00,,SCT055,0.00,0.00,VWS V14.01,2013-09-07 09:35:00,
2013-09-07 05:40:00,57.9,57.1,30.10,ENE,71,0.0,0.0,97,0.00,,SCT055,0.00,0.00,VWS V14.01,2013-09-07 09:40:00,
2013-09-07 05:45:00,57.8,57.0,30.10,ENE,71,0.0,0.0,97,0.00,,SCT055,0.00,0.00,VWS V14.01,2013-09-07 09:45:00,
2013-09-07 05:50:00,57.8,57.0,30.10,ENE,71,0.0,0.0,97,0.00,,SCT055,0.00,0.00,VWS V14.01,2013-09-07 09:50:00,
2013-09-07 05:55:00,57.7,56.9,30.10,ENE,71,0.0,0.0,97,0.00,,SCT055,0.00,0.00,VWS V14.01,2013-09-07 09:55:00,
2013-09-07 06:00:00,57.7,56.9,30.10,ENE,71,0.0,0.0,97,0.00,,SCT055,0.00,0.00,VWS V14.01,2013-09-07 10:00:00,
2013-09-07 06:05:00,57.7,56.9,30.11,ENE,71,0.0,0.0,97,0.00,,FEW055,0.00,0.00,VWS V14.01,2013-09-07 10:05:00,
2013-09-07 06:10:00,57.6,56.8,30.11,ENE,71,0.0,0.0,97,0.00,,FEW055,0.00,0.00,VWS V14.01,2013-09-07 10:10:00,
2013-09-07 06:15:00,57.5,56.7,30.10,ENE,71,0.0,0.0,97,0.00,,FEW055,0.00,0.00,VWS V14.01,2013-09-07 10:15:00,
2013-09-07 06:20:00,57.6,56.8,30.11,ENE,71,0.0,0.0,97,0.00,,FEW055,0.00,0.00,VWS V14.01,2013-09-07 10:20:00,
2013-09-07 06:25:00,57.5,56.7,30.11,ENE,71,0.0,0.0,97,0.00,,FEW055,0.00,0.00,VWS V14.01,2013-09-07 10:25:00,
2013-09-07 06:30:00,57.5,56.7,30.11,ENE,71,0.0,0.0,97,0.00,,FEW055,0.00,0.00,VWS V14.01,2013-09-07 10:30:00,
2013-09-07 06:35:00,57.3,56.5,30.11,ENE,71,0.0,0.0,97,0.00,,FEW055,0.00,0.00,VWS V14.01,2013-09-07 10:35:00,
2013-09-07 06:40:00,57.2,56.4,30.11,ENE,71,0.0,0.0,97,0.00,,FEW055,0.00,0.00,VWS V14.01,2013-09-07 10:40:00,
2013-09-07 06:45:00,57.2,56.4,30.11,ENE,71,0.0,0.0,97,0.00,,FEW055,0.00,5.00,VWS V14.01,2013-09-07 10:45:00,
2013-09-07 06:50:00,57.3,56.5,30.11,ENE,71,0.0,0.0,97,0.00,,FEW055,0.00,9.00,VWS V14.01,2013-09-07 10:50:00,
2013-09-07 06:55:00,57.4,56.8,30.11,ENE,71,0.0,0.0,98,0.00,,FEW055,0.00,12.00,VWS V14.01,2013-09-07 10:55:00,
2013-09-07 07:00:00,57.5,56.9,30.11,ENE,71,0.0,0.0,98,0.00,,FEW055,0.00,14.00,VWS V14.01,2013-09-07 11:00:00,
2013-09-07 07:05:00,57.8,57.2,30.11,ENE,71,0.0,0.0,98,0.00,,BKN250,0.00,19.00,VWS V14.01,2013-09-07 11:05:00,
2013-09-07 07:10:00,57.8,57.2,30.11,ENE,71,0.0,0.0,98,0.00,,BKN250,0.00,21.00,VWS V14.01,2013-09-07 11:10:00,
2013-09-07 07:15:00,58.1,57.5,30.11,ENE,71,0.0,0.0,98,0.00,,BKN250,0.00,26.00,VWS V14.01,2013-09-07 11:15:00,
2013-09-07 07:20:00,58.4,57.8,30.11,ENE,71,0.0,0.0,98,0.00,,BKN250,0.00,32.00,VWS V14.01,2013-09-07 11:20:00,
2013-09-07 07:25:00,58.7,58.1,30.12,ENE,71,0.0,0.0,98,0.00,,BKN250,0.00,35.00,VWS V14.01,2013-09-07 11:25:00,
2013-09-07 07:30:00,59.1,58.5,30.12,ENE,71,0.0,0.0,98,0.00,,BKN250,0.00,40.00,VWS V14.01,2013-09-07 11:30:00,
2013-09-07 07:35:00,59.8,59.0,30.11,ENE,71,0.0,0.0,97,0.00,,BKN250,0.00,44.00,VWS V14.01,2013-09-07 11:35:00,
2013-09-07 07:39:00,60.3,59.2,30.12,ENE,71,0.0,0.0,96,0.00,,BKN250,0.00,47.00,VWS V14.01,2013-09-07 11:39:00,
2013-09-07 07:40:00,60.2,59.1,30.12,ENE,71,0.0,0.0,96,0.00,,FEW070,0.00,47.00,VWS V14.01,2013-09-07 11:40:00,
2013-09-07 07:44:00,61.0,59.9,30.12,ENE,71,0.0,0.0,96,0.00,,BKN250,0.00,51.00,VWS V14.01,2013-09-07 11:44:00,
2013-09-07 07:45:00,61.0,59.8,30.12,ENE,71,0.0,0.0,96,0.00,,FEW070,0.00,51.00,VWS V14.01,2013-09-07 11:45:00,
2013-09-07 07:49:00,61.6,59.9,30.12,ENE,71,0.0,0.0,94,0.00,,BKN250,0.00,100.00,VWS V14.01,2013-09-07 11:49:00,
2013-09-07 07:50:00,61.6,59.9,30.12,ENE,71,0.0,0.0,94,0.00,,FEW070,0.00,100.00,VWS V14.01,2013-09-07 11:50:00,
2013-09-07 07:54:00,62.4,60.3,30.12,ENE,71,0.0,0.0,93,0.00,,BKN250,0.00,214.00,VWS V14.01,2013-09-07 11:54:00,
2013-09-07 07:55:00,62.3,60.3,30.12,ENE,71,0.0,0.0,93,0.00,,FEW070,0.00,214.00,VWS V14.01,2013-09-07 11:55:00,
2013-09-07 07:59:00,63.4,61.0,30.12,ENE,71,0.0,0.0,92,0.00,,BKN250,0.00,234.00,VWS V14.01,2013-09-07 11:59:00,
2013-09-07 08:00:00,63.3,60.9,30.12,ENE,71,0.0,0.0,92,0.00,,FEW070,0.00,234.00,VWS V14.01,2013-09-07 12:00:00,
2013-09-07 08:04:00,64.3,61.0,30.12,ENE,71,0.0,0.0,89,0.00,,BKN250,0.00,243.00,VWS V14.01,2013-09-07 12:04:00,
2013-09-07 08:05:00,64.2,60.9,30.12,ENE,71,0.0,0.0,89,0.00,,FEW070,0.00,250.00,VWS V14.01,2013-09-07 12:05:00,
2013-09-07 08:09:00,65.1,61.5,30.11,ENE,71,0.0,0.0,88,0.00,,BKN250,0.00,260.00,VWS V14.01,2013-09-07 12:09:00,
2013-09-07 08:10:00,65.0,61.4,30.11,ENE,71,0.0,0.0,88,0.00,,FEW070,0.00,260.00,VWS V14.01,2013-09-07 12:10:00,
2013-09-07 08:14:00,66.2,61.6,30.11,ENE,71,0.0,0.0,85,0.00,,BKN250,0.00,269.00,VWS V14.01,2013-09-07 12:14:00,
2013-09-07 08:15:00,66.2,61.6,30.11,ENE,71,0.0,0.0,85,0.00,,FEW070,0.00,269.00,VWS V14.01,2013-09-07 12:15:00,
2013-09-07 08:19:00,67.0,61.3,30.11,ENE,71,0.0,0.0,82,0.00,,BKN250,0.00,316.00,VWS V14.01,2013-09-07 12:19:00,
2013-09-07 08:20:00,67.0,61.3,30.11,ENE,71,0.0,0.0,82,0.00,,FEW070,0.00,316.00,VWS V14.01,2013-09-07 12:20:00,
2013-09-07 08:24:00,68.2,62.2,30.11,ENE,71,0.0,0.0,81,0.00,,BKN250,0.00,352.00,VWS V14.01,2013-09-07 12:24:00,
2013-09-07 08:25:00,68.2,62.2,30.11,ENE,71,0.0,0.0,81,0.00,,FEW070,0.00,352.00,VWS V14.01,2013-09-07 12:25:00,
2013-09-07 08:29:00,68.7,61.9,30.11,ENE,71,0.0,0.0,79,0.00,,BKN250,0.00,343.00,VWS V14.01,2013-09-07 12:29:00,
2013-09-07 08:30:00,68.7,61.9,30.11,ENE,71,0.0,0.0,79,0.00,,FEW070,0.00,343.00,VWS V14.01,2013-09-07 12:30:00,
2013-09-07 08:34:00,69.0,61.5,30.11,ENE,71,1.0,1.0,77,0.00,,BKN250,0.00,197.00,VWS V14.01,2013-09-07 12:34:00,
2013-09-07 08:35:00,69.0,61.5,30.11,ENE,71,1.0,1.0,77,0.00,,FEW070,0.00,183.00,VWS V14.01,2013-09-07 12:35:00,
2013-09-07 08:39:00,69.1,61.6,30.11,ENE,71,0.0,1.0,77,0.00,,BKN250,0.00,186.00,VWS V14.01,2013-09-07 12:39:00,
2013-09-07 08:40:00,69.1,61.6,30.11,ENE,71,0.0,1.0,77,0.00,,FEW070,0.00,186.00,VWS V14.01,2013-09-07 12:40:00,
2013-09-07 08:44:00,69.2,61.0,30.11,ENE,71,0.0,0.0,75,0.00,,BKN250,0.00,141.00,VWS V14.01,2013-09-07 12:44:00,
2013-09-07 08:45:00,69.2,61.0,30.11,ENE,71,0.0,0.0,75,0.00,,FEW070,0.00,141.00,VWS V14.01,2013-09-07 12:45:00,
2013-09-07 08:49:00,69.3,61.4,30.11,ENE,71,0.0,1.0,76,0.00,,BKN250,0.00,229.00,VWS V14.01,2013-09-07 12:49:00,
2013-09-07 08:50:00,69.3,60.7,30.11,ENE,71,0.0,1.0,74,0.00,,FEW070,0.00,229.00,VWS V14.01,2013-09-07 12:50:00,
2013-09-07 08:54:00,69.6,61.7,30.11,ENE,71,0.0,2.0,76,0.00,,BKN250,0.00,267.00,VWS V14.01,2013-09-07 12:54:00,
2013-09-07 08:55:00,69.6,61.7,30.11,ENE,71,0.0,2.0,76,0.00,,FEW070,0.00,267.00,VWS V14.01,2013-09-07 12:55:00,
2013-09-07 08:59:00,69.9,62.4,30.11,SE,144,2.0,2.0,77,0.00,,BKN250,0.00,236.00,VWS V14.01,2013-09-07 12:59:00,
2013-09-07 09:00:00,69.9,62.4,30.11,SE,138,2.0,2.0,77,0.00,,FEW070,0.00,236.00,VWS V14.01,2013-09-07 13:00:00,
2013-09-07 09:04:00,70.2,62.7,30.11,SW,234,1.0,3.0,77,0.00,,BKN250,0.00,367.00,VWS V14.01,2013-09-07 13:04:00,
2013-09-07 09:05:00,70.2,62.7,30.11,SW,234,1.0,3.0,77,0.00,,FEW070,0.00,367.00,VWS V14.01,2013-09-07 13:05:00,
2013-09-07 09:09:00,70.5,62.2,30.11,SW,234,0.0,1.0,75,0.00,,BKN250,0.00,508.00,VWS V14.01,2013-09-07 13:09:00,
2013-09-07 09:10:00,70.5,62.2,30.11,SW,234,0.0,1.0,75,0.00,,FEW070,0.00,508.00,VWS V14.01,2013-09-07 13:10:00,
2013-09-07 09:14:00,71.4,61.9,30.11,WSW,244,0.0,1.0,72,0.00,,BKN250,0.00,524.00,VWS V14.01,2013-09-07 13:14:00,
2013-09-07 09:15:00,71.3,61.8,30.11,WSW,244,0.0,1.0,72,0.00,,FEW070,0.00,524.00,VWS V14.01,2013-09-07 13:15:00,
2013-09-07 09:19:00,72.1,60.5,30.11,WSW,244,0.0,1.0,67,0.00,,BKN250,0.00,459.00,VWS V14.01,2013-09-07 13:19:00,
2013-09-07 09:20:00,72.1,60.5,30.11,WSW,244,0.0,1.0,67,0.00,,FEW070,0.00,459.00,VWS V14.01,2013-09-07 13:20:00,
2013-09-07 09:24:00,72.2,60.7,30.11,NW,304,0.0,1.0,67,0.00,,BKN250,0.00,534.00,VWS V14.01,2013-09-07 13:24:00,
2013-09-07 09:25:00,72.2,60.7,30.11,NW,304,0.0,1.0,67,0.00,,FEW070,0.00,534.00,VWS V14.01,2013-09-07 13:25:00,
2013-09-07 09:29:00,72.2,59.8,30.11,North,5,3.0,4.0,65,0.00,,BKN250,0.00,529.00,VWS V14.01,2013-09-07 13:29:00,
2013-09-07 09:30:00,72.2,59.8,30.11,North,5,3.0,4.0,65,0.00,,FEW070,0.00,529.00,VWS V14.01,2013-09-07 13:30:00,
2013-09-07 09:34:00,72.1,59.7,30.11,North,5,0.0,0.0,65,0.00,,BKN250,0.00,492.00,VWS V14.01,2013-09-07 13:34:00,
2013-09-07 09:35:00,72.1,59.7,30.11,North,5,0.0,0.0,65,0.00,,FEW070,0.00,492.00,VWS V14.01,2013-09-07 13:35:00,
2013-09-07 09:39:00,72.4,59.5,30.10,North,5,0.0,2.0,64,0.00,,BKN250,0.00,362.00,VWS V14.01,2013-09-07 13:39:00,
2013-09-07 09:40:00,72.4,59.5,30.10,North,5,0.0,2.0,64,0.00,,FEW070,0.00,362.00,VWS V14.01,2013-09-07 13:40:00,
2013-09-07 09:44:00,72.2,58.5,30.10,North,5,2.0,3.0,62,0.00,,BKN250,0.00,339.00,VWS V14.01,2013-09-07 13:44:00,
2013-09-07 09:45:00,72.2,58.5,30.10,North,5,2.0,3.0,62,0.00,,FEW070,0.00,339.00,VWS V14.01,2013-09-07 13:45:00,
2013-09-07 09:49:00,72.2,58.0,30.11,NNE,13,0.0,1.0,61,0.00,,BKN250,0.00,476.00,VWS V14.01,2013-09-07 13:49:00,
2013-09-07 09:50:00,72.2,58.0,30.11,NNE,13,0.0,1.0,61,0.00,,FEW070,0.00,476.00,VWS V14.01,2013-09-07 13:50:00,
2013-09-07 09:54:00,72.4,57.3,30.11,WSW,257,3.0,3.0,59,0.00,,BKN250,0.00,510.00,VWS V14.01,2013-09-07 13:54:00,
2013-09-07 09:55:00,72.4,59.1,30.11,WSW,257,2.0,3.0,63,0.00,,FEW070,0.00,510.00,VWS V14.01,2013-09-07 13:55:00,
2013-09-07 09:59:00,72.7,59.8,30.11,West,262,1.0,2.0,64,0.00,,BKN250,0.00,621.00,VWS V14.01,2013-09-07 13:59:00,
2013-09-07 10:00:00,72.7,59.8,30.11,West,262,1.0,2.0,64,0.00,,FEW070,0.00,621.00,VWS V14.01,2013-09-07 14:00:00,
2013-09-07 10:04:00,72.5,58.3,30.11,NNE,17,2.0,4.0,61,0.00,,BKN250,0.00,489.00,VWS V14.01,2013-09-07 14:04:00,
2013-09-07 10:05:00,72.5,58.3,30.11,NNE,17,1.0,3.0,61,0.00,,FEW070,0.00,489.00,VWS V14.01,2013-09-07 14:05:00,
2013-09-07 10:09:00,72.4,59.1,30.11,ESE,121,2.0,2.0,63,0.00,,BKN250,0.00,571.00,VWS V14.01,2013-09-07 14:09:00,
2013-09-07 10:10:00,72.4,59.1,30.11,SE,133,3.0,3.0,63,0.00,,FEW070,0.00,571.00,VWS V14.01,2013-09-07 14:10:00,
2013-09-07 10:14:00,73.8,60.4,30.11,SE,138,3.0,3.0,63,0.00,,BKN250,0.00,689.00,VWS V14.01,2013-09-07 14:14:00,
2013-09-07 10:15:00,73.9,60.5,30.11,SE,139,2.0,3.0,63,0.00,,FEW070,0.00,689.00,VWS V14.01,2013-09-07 14:15:00,
2013-09-07 10:19:00,74.3,58.6,30.11,SE,138,2.0,4.0,58,0.00,,BKN250,0.00,657.00,VWS V14.01,2013-09-07 14:19:00,
2013-09-07 10:20:00,74.3,58.6,30.11,ESE,109,2.0,4.0,58,0.00,,FEW070,0.00,657.00,VWS V14.01,2013-09-07 14:20:00,
2013-09-07 10:24:00,74.5,58.8,30.11,SSE,164,1.0,3.0,58,0.00,,BKN250,0.00,703.00,VWS V14.01,2013-09-07 14:24:00,
2013-09-07 10:25:00,74.5,58.8,30.11,SSE,164,1.0,3.0,58,0.00,,FEW070,0.00,703.00,VWS V14.01,2013-09-07 14:25:00,
2013-09-07 10:29:00,73.8,59.1,30.11,SW,215,2.0,3.0,60,0.00,,BKN250,0.00,211.00,VWS V14.01,2013-09-07 14:29:00,
2013-09-07 10:30:00,73.8,58.6,30.11,SW,215,2.0,3.0,59,0.00,,FEW070,0.00,211.00,VWS V14.01,2013-09-07 14:30:00,
2013-09-07 10:34:00,73.5,58.8,30.11,SW,215,0.0,1.0,60,0.00,,BKN250,0.00,229.00,VWS V14.01,2013-09-07 14:34:00,
2013-09-07 10:35:00,73.5,58.8,30.11,SW,215,0.0,1.0,60,0.00,,FEW070,0.00,229.00,VWS V14.01,2013-09-07 14:35:00,
2013-09-07 10:39:00,73.0,57.8,30.11,East,87,0.0,0.0,59,0.00,,BKN250,0.00,257.00,VWS V14.01,2013-09-07 14:39:00,
2013-09-07 10:40:00,73.0,57.8,30.11,East,87,1.0,1.0,59,0.00,,FEW070,0.00,257.00,VWS V14.01,2013-09-07 14:40:00,
2013-09-07 10:44:00,73.6,58.4,30.11,SSW,198,0.0,2.0,59,0.00,,BKN250,0.00,752.00,VWS V14.01,2013-09-07 14:44:00,
2013-09-07 10:45:00,73.6,58.4,30.11,SSW,198,0.0,1.0,59,0.00,,FEW070,0.00,772.00,VWS V14.01,2013-09-07 14:45:00,
2013-09-07 10:49:00,74.0,58.3,30.11,ENE,71,1.0,3.0,58,0.00,,BKN250,0.00,807.00,VWS V14.01,2013-09-07 14:49:00,
2013-09-07 10:50:00,74.0,58.3,30.11,ENE,71,1.0,3.0,58,0.00,,FEW070,0.00,798.00,VWS V14.01,2013-09-07 14:50:00,
2013-09-07 10:54:00,73.8,57.6,30.10,NNE,23,2.0,3.0,57,0.00,,BKN250,0.00,703.00,VWS V14.01,2013-09-07 14:54:00,
2013-09-07 10:55:00,73.7,57.5,30.10,NNE,23,1.0,3.0,57,0.00,,FEW070,0.00,703.00,VWS V14.01,2013-09-07 14:55:00,
2013-09-07 10:59:00,74.2,60.8,30.11,SSW,194,1.0,2.0,63,0.00,,BKN250,0.00,745.00,VWS V14.01,2013-09-07 14:59:00,
2013-09-07 11:00:00,74.3,59.5,30.11,South,184,0.0,2.0,60,0.00,,FEW070,0.00,745.00,VWS V14.01,2013-09-07 15:00:00,
2013-09-07 11:04:00,74.9,59.6,30.10,East,81,1.0,1.0,59,0.00,,BKN250,0.00,751.00,VWS V14.01,2013-09-07 15:04:00,
2013-09-07 11:05:00,74.9,59.6,30.10,East,82,0.0,2.0,59,0.00,,FEW070,0.00,751.00,VWS V14.01,2013-09-07 15:05:00,
2013-09-07 11:09:00,75.0,59.7,30.10,ENE,69,1.0,4.0,59,0.00,,BKN250,0.00,835.00,VWS V14.01,2013-09-07 15:09:00,
2013-09-07 11:10:00,74.9,59.6,30.10,East,94,5.0,5.0,59,0.00,,FEW070,0.00,835.00,VWS V14.01,2013-09-07 15:10:00,
2013-09-07 11:14:00,75.3,58.5,30.11,ESE,113,2.0,6.0,56,0.00,,BKN250,0.00,886.00,VWS V14.01,2013-09-07 15:14:00,
2013-09-07 11:15:00,75.3,58.5,30.11,ESE,113,1.0,3.0,56,0.00,,FEW070,0.00,882.00,VWS V14.01,2013-09-07 15:15:00,
2013-09-07 11:19:00,75.2,59.9,30.10,ENE,61,4.0,4.0,59,0.00,,BKN250,0.00,854.00,VWS V14.01,2013-09-07 15:19:00,
2013-09-07 11:20:00,75.2,59.9,30.10,ENE,63,2.0,4.0,59,0.00,,FEW070,0.00,865.00,VWS V14.01,2013-09-07 15:20:00,
2013-09-07 11:24:00,74.4,59.2,30.10,ENE,65,0.0,2.0,59,0.00,,BKN250,0.00,896.00,VWS V14.01,2013-09-07 15:24:00,
2013-09-07 11:25:00,74.4,59.2,30.10,ENE,65,2.0,2.0,59,0.00,,FEW070,0.00,881.00,VWS V14.01,2013-09-07 15:25:00,
2013-09-07 11:29:00,75.3,60.0,30.10,ENE,76,3.0,3.0,59,0.00,,BKN250,0.00,868.00,VWS V14.01,2013-09-07 15:29:00,
2013-09-07 11:30:00,75.3,59.0,30.10,East,86,1.0,5.0,57,0.00,,FEW070,0.00,868.00,VWS V14.01,2013-09-07 15:30:00,
2013-09-07 11:34:00,75.6,60.3,30.10,NNE,30,1.0,2.0,59,0.00,,BKN250,0.00,958.00,VWS V14.01,2013-09-07 15:34:00,
2013-09-07 11:35:00,75.5,59.7,30.10,NNE,30,0.0,2.0,58,0.00,,FEW070,0.00,958.00,VWS V14.01,2013-09-07 15:35:00,
2013-09-07 11:39:00,74.5,59.7,30.10,South,187,0.0,3.0,60,0.00,,BKN250,0.00,541.00,VWS V14.01,2013-09-07 15:39:00,
2013-09-07 11:40:00,74.6,59.8,30.10,East,101,1.0,2.0,60,0.00,,FEW070,0.00,541.00,VWS V14.01,2013-09-07 15:40:00,
2013-09-07 11:44:00,75.1,58.3,30.10,SE,125,2.0,2.0,56,0.00,,BKN250,0.00,972.00,VWS V14.01,2013-09-07 15:44:00,
2013-09-07 11:45:00,75.0,58.3,30.10,ESE,114,3.0,4.0,56,0.00,,FEW070,0.00,972.00,VWS V14.01,2013-09-07 15:45:00,
2013-09-07 11:49:00,74.6,57.4,30.10,NNE,24,0.0,1.0,55,0.00,,BKN250,0.00,281.00,VWS V14.01,2013-09-07 15:49:00,
2013-09-07 11:50:00,74.4,57.2,30.10,NNE,26,1.0,1.0,55,0.00,,FEW070,0.00,281.00,VWS V14.01,2013-09-07 15:50:00,
2013-09-07 11:54:00,73.9,59.2,30.10,ESE,103,3.0,4.0,60,0.00,,BKN250,0.00,253.00,VWS V14.01,2013-09-07 15:54:00,
2013-09-07 11:55:00,73.9,59.2,30.10,ENE,76,2.0,4.0,60,0.00,,FEW070,0.00,251.00,VWS V14.01,2013-09-07 15:55:00,
2013-09-07 11:59:00,74.1,59.8,30.09,East,83,2.0,2.0,61,0.00,,BKN250,0.00,227.00,VWS V14.01,2013-09-07 15:59:00,
2013-09-07 12:00:00,74.1,59.8,30.09,NE,42,2.0,3.0,61,0.00,,FEW070,0.00,223.00,VWS V14.01,2013-09-07 16:00:00,
2013-09-07 12:04:00,73.9,58.2,30.09,NNE,18,1.0,2.0,58,0.00,,BKN250,0.00,213.00,VWS V14.01,2013-09-07 16:04:00,
2013-09-07 12:05:00,73.9,58.2,30.09,NNE,18,1.0,2.0,58,0.00,,FEW070,0.00,213.00,VWS V14.01,2013-09-07 16:05:00,
2013-09-07 12:09:00,73.5,58.3,30.09,NNE,18,0.0,1.0,59,0.00,,BKN250,0.00,192.00,VWS V14.01,2013-09-07 16:09:00,
2013-09-07 12:10:00,73.5,57.8,30.09,NNE,18,0.0,1.0,58,0.00,,FEW070,0.00,192.00,VWS V14.01,2013-09-07 16:10:00,
2013-09-07 12:14:00,73.6,58.4,30.09,NNW,327,0.0,2.0,59,0.00,,BKN250,0.00,230.00,VWS V14.01,2013-09-07 16:14:00,
2013-09-07 12:15:00,73.6,58.4,30.09,NW,321,1.0,2.0,59,0.00,,FEW070,0.00,230.00,VWS V14.01,2013-09-07 16:15:00,
2013-09-07 12:19:00,73.9,57.7,30.09,WSW,247,4.0,4.0,57,0.00,,BKN250,0.00,209.00,VWS V14.01,2013-09-07 16:19:00,
2013-09-07 12:20:00,73.9,57.7,30.09,WSW,242,5.0,5.0,57,0.00,,FEW070,0.00,209.00,VWS V14.01,2013-09-07 16:20:00,
2013-09-07 12:24:00,74.2,59.4,30.08,WSW,249,3.0,3.0,60,0.00,,BKN250,0.00,139.00,VWS V14.01,2013-09-07 16:24:00,
2013-09-07 12:25:00,74.2,59.4,30.08,WSW,248,4.0,4.0,60,0.00,,FEW070,0.00,137.00,VWS V14.01,2013-09-07 16:25:00,
2013-09-07 12:29:00,73.8,58.6,30.08,SW,223,1.0,1.0,59,0.00,,BKN250,0.00,260.00,VWS V14.01,2013-09-07 16:29:00,
2013-09-07 12:30:00,73.7,58.5,30.08,SW,223,2.0,2.0,59,0.00,,FEW070,0.00,260.00,VWS V14.01,2013-09-07 16:30:00,
2013-09-07 12:34:00,74.3,58.1,30.08,SSW,209,0.0,1.0,57,0.00,,BKN250,0.00,896.00,VWS V14.01,2013-09-07 16:34:00,
2013-09-07 12:35:00,74.3,58.1,30.08,SSW,209,0.0,0.0,57,0.00,,FEW070,0.00,896.00,VWS V14.01,2013-09-07 16:35:00,
2013-09-07 12:39:00,75.3,58.5,30.08,South,189,0.0,1.0,56,0.00,,BKN250,0.00,884.00,VWS V14.01,2013-09-07 16:39:00,
2013-09-07 12:40:00,75.3,58.0,30.08,West,265,2.0,3.0,55,0.00,,FEW070,0.00,884.00,VWS V14.01,2013-09-07 16:40:00,
2013-09-07 12:44:00,75.0,59.2,30.07,SW,225,1.0,2.0,58,0.00,,BKN250,0.00,884.00,VWS V14.01,2013-09-07 16:44:00,
2013-09-07 12:45:00,75.0,59.2,30.07,SW,224,0.0,1.0,58,0.00,,FEW070,0.00,884.00,VWS V14.01,2013-09-07 16:45:00,
2013-09-07 12:49:00,75.2,58.4,30.07,East,88,0.0,3.0,56,0.00,,BKN250,0.00,879.00,VWS V14.01,2013-09-07 16:49:00,
2013-09-07 12:50:00,75.1,58.3,30.07,East,90,0.0,1.0,56,0.00,,FEW070,0.00,881.00,VWS V14.01,2013-09-07 16:50:00,
2013-09-07 12:54:00,75.4,59.6,30.07,NNE,26,1.0,3.0,58,0.00,,BKN250,0.00,896.00,VWS V14.01,2013-09-07 16:54:00,
2013-09-07 12:55:00,75.4,59.6,30.07,NNE,26,2.0,2.0,58,0.00,,FEW070,0.00,902.00,VWS V14.01,2013-09-07 16:55:00,
2013-09-07 12:59:00,75.6,60.8,30.07,SE,132,2.0,5.0,60,0.00,,BKN250,0.00,919.00,VWS V14.01,2013-09-07 16:59:00,
2013-09-07 13:00:00,75.8,60.9,30.07,SE,135,4.0,4.0,60,0.00,,FEW070,0.00,925.00,VWS V14.01,2013-09-07 17:00:00,
2013-09-07 13:04:00,76.5,59.7,30.07,South,172,1.0,2.0,56,0.00,,BKN250,0.00,918.00,VWS V14.01,2013-09-07 17:04:00,
2013-09-07 13:05:00,76.4,59.1,30.07,SSW,198,3.0,4.0,55,0.00,,FEW070,0.00,926.00,VWS V14.01,2013-09-07 17:05:00,
2013-09-07 13:09:00,76.8,59.4,30.07,SSE,160,5.0,6.0,55,0.00,,BKN250,0.00,953.00,VWS V14.01,2013-09-07 17:09:00,
2013-09-07 13:10:00,76.7,60.3,30.07,ESE,122,4.0,5.0,57,0.00,,FEW070,0.00,953.00,VWS V14.01,2013-09-07 17:10:00,
2013-09-07 13:14:00,76.4,58.5,30.07,South,183,4.0,4.0,54,0.00,,BKN250,0.00,188.00,VWS V14.01,2013-09-07 17:14:00,
2013-09-07 13:15:00,76.2,58.9,30.07,South,176,1.0,4.0,55,0.00,,FEW070,0.00,188.00,VWS V14.01,2013-09-07 17:15:00,
2013-09-07 13:19:00,76.0,59.7,30.07,SSW,192,3.0,3.0,57,0.00,,BKN250,0.00,909.00,VWS V14.01,2013-09-07 17:19:00,
2013-09-07 13:20:00,76.1,59.3,30.07,South,173,4.0,4.0,56,0.00,,FEW070,0.00,947.00,VWS V14.01,2013-09-07 17:20:00,
2013-09-07 13:24:00,76.3,58.5,30.06,WSW,249,0.0,2.0,54,0.00,,BKN250,0.00,810.00,VWS V14.01,2013-09-07 17:24:00,
2013-09-07 13:25:00,76.2,58.4,30.06,SSW,211,1.0,2.0,54,0.00,,FEW070,0.00,882.00,VWS V14.01,2013-09-07 17:25:00,
2013-09-07 13:29:00,76.8,59.4,30.06,South,181,3.0,3.0,55,0.00,,BKN250,0.00,933.00,VWS V14.01,2013-09-07 17:29:00,
2013-09-07 13:30:00,76.8,60.4,30.06,SSE,152,3.0,4.0,57,0.00,,FEW070,0.00,930.00,VWS V14.01,2013-09-07 17:30:00,
2013-09-07 13:33:00,77.7,61.3,30.06,North,351,5.0,5.0,57,0.00,,BKN250,0.00,919.00,VWS V14.01,2013-09-07 17:33:00,
2013-09-07 13:35:00,77.7,60.3,30.06,North,9,6.0,7.0,55,0.00,,FEW070,0.00,916.00,VWS V14.01,2013-09-07 17:35:00,
2013-09-07 13:38:00,77.2,60.3,30.06,ENE,75,8.0,9.0,56,0.00,,BKN250,0.00,905.00,VWS V14.01,2013-09-07 17:38:00,
2013-09-07 13:40:00,77.2,59.8,30.06,ESE,119,4.0,7.0,55,0.00,,FEW070,0.00,905.00,VWS V14.01,2013-09-07 17:40:00,
2013-09-07 13:43:00,77.3,61.9,30.06,ENE,75,1.0,2.0,59,0.00,,BKN250,0.00,928.00,VWS V14.01,2013-09-07 17:43:00,
2013-09-07 13:45:00,77.3,60.4,30.06,ESE,111,3.0,6.0,56,0.00,,OVC220,0.00,928.00,VWS V14.01,2013-09-07 17:45:00,
2013-09-07 13:48:00,76.6,61.2,30.06,East,92,1.0,4.0,59,0.00,,BKN250,0.00,928.00,VWS V14.01,2013-09-07 17:48:00,
2013-09-07 13:50:00,76.6,61.2,30.06,East,90,0.0,1.0,59,0.00,,FEW070,0.00,928.00,VWS V14.01,2013-09-07 17:50:00,
2013-09-07 13:53:00,76.7,59.8,30.06,ESE,121,1.0,3.0,56,0.00,,BKN250,0.00,1018.00,VWS V14.01,2013-09-07 17:53:00,
2013-09-07 13:55:00,76.7,59.8,30.06,East,86,5.0,6.0,56,0.00,,FEW070,0.00,1018.00,VWS V14.01,2013-09-07 17:55:00,
2013-09-07 13:58:00,77.3,61.4,30.06,South,189,3.0,6.0,58,0.00,,BKN250,0.00,935.00,VWS V14.01,2013-09-07 17:58:00,
2013-09-07 14:00:00,77.3,59.4,30.06,SSW,193,2.0,4.0,54,0.00,,FEW070,0.00,896.00,VWS V14.01,2013-09-07 18:00:00,
2013-09-07 14:04:00,77.2,59.3,30.05,ENE,77,4.0,8.0,54,0.00,,SCT250,0.00,881.00,VWS V14.01,2013-09-07 18:04:00,
2013-09-07 14:05:00,77.1,59.2,30.05,ENE,77,9.0,11.0,54,0.00,,FEW070,0.00,874.00,VWS V14.01,2013-09-07 18:05:00,
2013-09-07 14:09:00,76.8,59.4,30.05,South,180,8.0,8.0,55,0.00,,SCT250,0.00,812.00,VWS V14.01,2013-09-07 18:09:00,
2013-09-07 14:10:00,76.9,61.0,30.05,SSE,153,6.0,9.0,58,0.00,,FEW070,0.00,812.00,VWS V14.01,2013-09-07 18:10:00,
2013-09-07 14:14:00,77.3,61.4,30.05,East,79,7.0,7.0,58,0.00,,SCT250,0.00,350.00,VWS V14.01,2013-09-07 18:14:00,
2013-09-07 14:15:00,77.3,61.9,30.05,ENE,67,9.0,9.0,59,0.00,,FEW070,0.00,350.00,VWS V14.01,2013-09-07 18:15:00,
2013-09-07 14:19:00,77.0,60.6,30.05,ESE,121,5.0,9.0,57,0.00,,SCT250,0.00,246.00,VWS V14.01,2013-09-07 18:19:00,
2013-09-07 14:20:00,76.9,60.0,30.05,SE,138,5.0,7.0,56,0.00,,FEW070,0.00,246.00,VWS V14.01,2013-09-07 18:20:00,
2013-09-07 14:23:00,76.7,58.8,30.04,SSE,157,4.0,5.0,54,0.00,,SCT250,0.00,246.00,VWS V14.01,2013-09-07 18:23:00,
2013-09-07 14:25:00,76.6,58.7,30.04,SSE,154,5.0,5.0,54,0.00,,FEW070,0.00,246.00,VWS V14.01,2013-09-07 18:25:00,
2013-09-07 14:28:00,76.5,59.2,30.04,SE,129,6.0,6.0,55,0.00,,SCT250,0.00,441.00,VWS V14.01,2013-09-07 18:28:00,
2013-09-07 14:30:00,76.5,60.2,30.04,East,79,3.0,5.0,57,0.00,,FEW070,0.00,733.00,VWS V14.01,2013-09-07 18:30:00,
2013-09-07 14:33:00,76.4,60.1,30.04,SE,142,1.0,5.0,57,0.00,,SCT250,0.00,742.00,VWS V14.01,2013-09-07 18:33:00,
2013-09-07 14:35:00,76.4,59.6,30.04,SE,132,2.0,3.0,56,0.00,,FEW070,0.00,865.00,VWS V14.01,2013-09-07 18:35:00,
2013-09-07 14:38:00,76.6,61.2,30.04,East,83,3.0,7.0,59,0.00,,SCT250,0.00,812.00,VWS V14.01,2013-09-07 18:38:00,
2013-09-07 14:40:00,76.7,60.3,30.04,SE,134,5.0,10.0,57,0.00,,FEW070,0.00,809.00,VWS V14.01,2013-09-07 18:40:00,
2013-09-07 14:43:00,76.9,61.0,30.04,ESE,119,4.0,8.0,58,0.00,,SCT250,0.00,411.00,VWS V14.01,2013-09-07 18:43:00,
2013-09-07 14:45:00,76.9,60.0,30.04,SE,131,3.0,9.0,56,0.00,,FEW070,0.00,411.00,VWS V14.01,2013-09-07 18:45:00,
2013-09-07 14:48:00,76.7,59.8,30.03,East,89,2.0,5.0,56,0.00,,SCT250,0.00,202.00,VWS V14.01,2013-09-07 18:48:00,
2013-09-07 14:50:00,76.7,59.8,30.03,SSW,210,2.0,5.0,56,0.00,,FEW070,0.00,202.00,VWS V14.01,2013-09-07 18:50:00,
2013-09-07 14:53:00,77.2,60.8,30.03,ESE,113,0.0,5.0,57,0.00,,SCT250,0.00,805.00,VWS V14.01,2013-09-07 18:53:00,
2013-09-07 14:55:00,77.2,59.8,30.03,SSE,154,2.0,3.0,55,0.00,,FEW070,0.00,805.00,VWS V14.01,2013-09-07 18:55:00,
2013-09-07 14:58:00,77.2,59.8,30.03,ESE,119,5.0,6.0,55,0.00,,SCT250,0.00,789.00,VWS V14.01,2013-09-07 18:58:00,
2013-09-07 15:00:00,77.3,59.9,30.03,SSE,161,4.0,5.0,55,0.00,,FEW070,0.00,707.00,VWS V14.01,2013-09-07 19:00:00,
2013-09-07 15:03:00,76.8,59.9,30.03,SSW,194,7.0,8.0,56,0.00,,SCT250,0.00,817.00,VWS V14.01,2013-09-07 19:03:00,
2013-09-07 15:05:00,76.8,60.4,30.03,South,178,6.0,8.0,57,0.00,,FEW070,0.00,817.00,VWS V14.01,2013-09-07 19:05:00,
2013-09-07 15:08:00,76.4,59.6,30.03,ESE,117,1.0,2.0,56,0.00,,SCT250,0.00,213.00,VWS V14.01,2013-09-07 19:08:00,
2013-09-07 15:10:00,76.3,59.5,30.03,ESE,109,8.0,8.0,56,0.00,,FEW070,0.00,796.00,VWS V14.01,2013-09-07 19:10:00,
2013-09-07 15:13:00,76.3,60.0,30.03,SE,145,2.0,7.0,57,0.00,,SCT250,0.00,814.00,VWS V14.01,2013-09-07 19:13:00,
2013-09-07 15:15:00,76.4,60.5,30.03,South,178,6.0,8.0,58,0.00,,FEW070,0.00,814.00,VWS V14.01,2013-09-07 19:15:00,
2013-09-07 15:18:00,76.2,58.9,30.03,SSE,151,9.0,9.0,55,0.00,,SCT250,0.00,202.00,VWS V14.01,2013-09-07 19:18:00,
2013-09-07 15:20:00,76.1,59.8,30.03,ESE,116,4.0,11.0,57,0.00,,FEW070,0.00,202.00,VWS V14.01,2013-09-07 19:20:00,
2013-09-07 15:23:00,76.0,58.7,30.03,East,96,1.0,3.0,55,0.00,,SCT250,0.00,738.00,VWS V14.01,2013-09-07 19:23:00,
2013-09-07 15:25:00,76.0,59.2,30.03,SE,129,2.0,5.0,56,0.00,,FEW070,0.00,738.00,VWS V14.01,2013-09-07 19:25:00,
2013-09-07 15:28:00,76.1,59.8,30.03,South,191,7.0,8.0,57,0.00,,SCT250,0.00,737.00,VWS V14.01,2013-09-07 19:28:00,
2013-09-07 15:30:00,76.1,59.3,30.03,South,173,4.0,9.0,56,0.00,,FEW070,0.00,327.00,VWS V14.01,2013-09-07 19:30:00,
2013-09-07 15:33:00,76.5,60.2,30.03,ENE,76,4.0,5.0,57,0.00,,SCT250,0.00,707.00,VWS V14.01,2013-09-07 19:33:00,
2013-09-07 15:35:00,76.6,60.7,30.03,SE,141,1.0,7.0,58,0.00,,OVC220,0.00,707.00,VWS V14.01,2013-09-07 19:35:00,
2013-09-07 15:38:00,76.4,60.1,30.02,ENE,78,5.0,8.0,57,0.00,,SCT250,0.00,696.00,VWS V14.01,2013-09-07 19:38:00,
2013-09-07 15:40:00,76.3,60.5,30.02,ENE,71,4.0,9.0,58,0.00,,OVC220,0.00,724.00,VWS V14.01,2013-09-07 19:40:00,
2013-09-07 15:43:00,76.1,60.3,30.02,East,90,2.0,6.0,58,0.00,,SCT250,0.00,647.00,VWS V14.01,2013-09-07 19:43:00,
2013-09-07 15:45:00,76.1,59.8,30.02,ENE,74,3.0,4.0,57,0.00,,FEW070,0.00,657.00,VWS V14.01,2013-09-07 19:45:00,
2013-09-07 15:48:00,76.3,60.5,30.02,SSE,150,4.0,4.0,58,0.00,,SCT250,0.00,654.00,VWS V14.01,2013-09-07 19:48:00,
2013-09-07 15:50:00,76.3,60.5,30.02,SE,125,8.0,9.0,58,0.00,,FEW070,0.00,652.00,VWS V14.01,2013-09-07 19:50:00,
2013-09-07 15:53:00,75.9,60.1,30.02,NNE,18,6.0,8.0,58,0.00,,SCT250,0.00,633.00,VWS V14.01,2013-09-07 19:53:00,
2013-09-07 15:55:00,75.9,60.1,30.02,SE,142,4.0,6.0,58,0.00,,FEW070,0.00,629.00,VWS V14.01,2013-09-07 19:55:00,
2013-09-07 15:58:00,76.1,59.8,30.02,SE,139,3.0,4.0,57,0.00,,SCT250,0.00,619.00,VWS V14.01,2013-09-07 19:58:00,
2013-09-07 16:00:00,76.2,59.9,30.02,ESE,104,4.0,6.0,57,0.00,,FEW070,0.00,612.00,VWS V14.01,2013-09-07 20:00:00,
2013-09-07 16:03:00,76.4,60.5,30.02,NE,55,5.0,5.0,58,0.00,,SCT250,0.00,605.00,VWS V14.01,2013-09-07 20:03:00,
2013-09-07 16:05:00,76.4,59.6,30.02,NE,53,4.0,7.0,56,0.00,,OVC220,0.00,610.00,VWS V14.01,2013-09-07 20:05:00,
2013-09-07 16:08:00,76.1,58.8,30.02,SE,128,8.0,9.0,55,0.00,,SCT250,0.00,598.00,VWS V14.01,2013-09-07 20:08:00,
2013-09-07 16:10:00,76.1,59.8,30.02,East,94,8.0,8.0,57,0.00,,OVC220,0.00,596.00,VWS V14.01,2013-09-07 20:10:00,
2013-09-07 16:13:00,75.9,59.1,30.01,East,88,5.0,7.0,56,0.00,,SCT250,0.00,585.00,VWS V14.01,2013-09-07 20:13:00,
2013-09-07 16:15:00,75.8,59.0,30.01,ESE,120,9.0,9.0,56,0.00,,FEW070,0.00,584.00,VWS V14.01,2013-09-07 20:15:00,
2013-09-07 16:18:00,75.6,59.3,30.01,ENE,58,7.0,8.0,57,0.00,,SCT250,0.00,564.00,VWS V14.01,2013-09-07 20:18:00,
2013-09-07 16:20:00,75.6,58.8,30.01,ESE,115,2.0,5.0,56,0.00,,OVC220,0.00,561.00,VWS V14.01,2013-09-07 20:20:00,
2013-09-07 16:23:00,75.7,60.4,30.01,ESE,119,1.0,7.0,59,0.00,,SCT250,0.00,552.00,VWS V14.01,2013-09-07 20:23:00,
2013-09-07 16:25:00,75.8,59.5,30.01,ENE,68,9.0,9.0,57,0.00,,OVC220,0.00,550.00,VWS V14.01,2013-09-07 20:25:00,
2013-09-07 16:28:00,75.7,59.4,30.01,East,96,7.0,10.0,57,0.00,,SCT250,0.00,541.00,VWS V14.01,2013-09-07 20:28:00,
2013-09-07 16:30:00,75.7,58.9,30.01,ESE,106,4.0,5.0,56,0.00,,OVC220,0.00,533.00,VWS V14.01,2013-09-07 20:30:00,
2013-09-07 16:33:00,75.7,58.9,30.01,SSE,149,4.0,4.0,56,0.00,,SCT250,0.00,520.00,VWS V14.01,2013-09-07 20:33:00,
2013-09-07 16:35:00,75.7,59.4,30.01,SSE,152,4.0,5.0,57,0.00,,FEW070,0.00,520.00,VWS V14.01,2013-09-07 20:35:00,
2013-09-07 16:38:00,75.6,59.3,30.01,South,180,2.0,4.0,57,0.00,,SCT250,0.00,508.00,VWS V14.01,2013-09-07 20:38:00,
2013-09-07 16:40:00,75.7,59.9,30.01,SSE,157,5.0,6.0,58,0.00,,FEW070,0.00,504.00,VWS V14.01,2013-09-07 20:40:00,
2013-09-07 16:43:00,76.2,60.8,30.00,SSE,152,3.0,4.0,59,0.00,,SCT250,0.00,492.00,VWS V14.01,2013-09-07 20:43:00,
2013-09-07 16:45:00,76.1,59.3,30.00,South,185,6.0,7.0,56,0.00,,FEW070,0.00,489.00,VWS V14.01,2013-09-07 20:45:00,
2013-09-07 16:48:00,75.8,60.0,30.00,South,184,5.0,7.0,58,0.00,,SCT250,0.00,478.00,VWS V14.01,2013-09-07 20:48:00,
2013-09-07 16:50:00,75.7,59.9,30.00,SSE,161,8.0,9.0,58,0.00,,FEW070,0.00,476.00,VWS V14.01,2013-09-07 20:50:00,
2013-09-07 16:53:00,75.8,59.5,30.01,SSE,162,3.0,6.0,57,0.00,,SCT250,0.00,457.00,VWS V14.01,2013-09-07 20:53:00,
2013-09-07 16:55:00,75.8,60.0,30.01,SSE,167,4.0,4.0,58,0.00,,FEW070,0.00,457.00,VWS V14.01,2013-09-07 20:55:00,
2013-09-07 16:58:00,75.5,59.2,30.00,South,186,4.0,5.0,57,0.00,,SCT250,0.00,445.00,VWS V14.01,2013-09-07 20:58:00,
2013-09-07 17:00:00,75.5,59.7,30.00,ESE,105,2.0,5.0,58,0.00,,OVC220,0.00,443.00,VWS V14.01,2013-09-07 21:00:00,
2013-09-07 17:03:00,75.4,60.1,30.00,SSE,165,4.0,5.0,59,0.00,,SCT250,0.00,429.00,VWS V14.01,2013-09-07 21:03:00,
2013-09-07 17:05:00,75.5,61.1,30.00,SSE,159,6.0,9.0,61,0.00,,FEW070,0.00,425.00,VWS V14.01,2013-09-07 21:05:00,
2013-09-07 17:08:00,75.6,59.8,30.00,SE,146,3.0,6.0,58,0.00,,SCT250,0.00,415.00,VWS V14.01,2013-09-07 21:08:00,
2013-09-07 17:10:00,75.5,60.2,30.00,ESE,123,4.0,5.0,59,0.00,,FEW070,0.00,411.00,VWS V14.01,2013-09-07 21:10:00,
2013-09-07 17:13:00,75.1,59.3,30.00,SE,145,8.0,9.0,58,0.00,,SCT250,0.00,397.00,VWS V14.01,2013-09-07 21:13:00,
2013-09-07 17:15:00,75.0,59.7,30.00,ESE,120,5.0,6.0,59,0.00,,FEW070,0.00,394.00,VWS V14.01,2013-09-07 21:15:00,
2013-09-07 17:18:00,74.7,59.4,30.00,SE,144,6.0,6.0,59,0.00,,SCT250,0.00,257.00,VWS V14.01,2013-09-07 21:18:00,
2013-09-07 17:20:00,74.7,59.4,30.00,South,187,4.0,8.0,59,0.00,,FEW070,0.00,243.00,VWS V14.01,2013-09-07 21:20:00,
2013-09-07 17:23:00,74.7,59.0,30.00,South,187,5.0,6.0,58,0.00,,SCT250,0.00,193.00,VWS V14.01,2013-09-07 21:23:00,
2013-09-07 17:25:00,74.7,59.4,30.00,SSE,154,3.0,5.0,59,0.00,,FEW070,0.00,109.00,VWS V14.01,2013-09-07 21:25:00,
2013-09-07 17:28:00,74.5,59.2,30.00,SSE,153,5.0,7.0,59,0.00,,SCT250,0.00,63.00,VWS V14.01,2013-09-07 21:28:00,
2013-09-07 17:30:00,74.5,59.2,30.00,ESE,114,4.0,7.0,59,0.00,,FEW070,0.00,51.00,VWS V14.01,2013-09-07 21:30:00,
2013-09-07 17:33:00,74.4,59.2,30.00,SSE,161,3.0,3.0,59,0.00,,SCT250,0.00,49.00,VWS V14.01,2013-09-07 21:33:00,
2013-09-07 17:35:00,74.4,59.6,30.00,South,182,3.0,7.0,60,0.00,,FEW070,0.00,56.00,VWS V14.01,2013-09-07 21:35:00,
2013-09-07 17:38:00,74.5,59.7,30.00,SSE,148,6.0,7.0,60,0.00,,SCT250,0.00,54.00,VWS V14.01,2013-09-07 21:38:00,
2013-09-07 17:40:00,74.4,59.6,30.00,South,190,3.0,4.0,60,0.00,,FEW070,0.00,60.00,VWS V14.01,2013-09-07 21:40:00,
2013-09-07 17:43:00,74.2,59.4,30.00,SE,134,5.0,7.0,60,0.00,,SCT250,0.00,65.00,VWS V14.01,2013-09-07 21:43:00,
2013-09-07 17:45:00,74.2,59.9,30.00,SE,138,2.0,5.0,61,0.00,,FEW070,0.00,53.00,VWS V14.01,2013-09-07 21:45:00,
2013-09-07 17:48:00,73.9,59.2,30.00,SSE,150,3.0,6.0,60,0.00,,SCT250,0.00,74.00,VWS V14.01,2013-09-07 21:48:00,
2013-09-07 17:50:00,73.8,59.1,30.00,SSE,159,3.0,3.0,60,0.00,,FEW070,0.00,51.00,VWS V14.01,2013-09-07 21:50:00,
2013-09-07 17:53:00,73.9,59.6,30.00,SSE,150,2.0,6.0,61,0.00,,SCT250,0.00,60.00,VWS V14.01,2013-09-07 21:53:00,
2013-09-07 17:55:00,73.8,59.5,30.00,SE,136,7.0,7.0,61,0.00,,FEW070,0.00,67.00,VWS V14.01,2013-09-07 21:55:00,
2013-09-07 17:58:00,73.9,59.6,30.00,SSE,158,3.0,3.0,61,0.00,,SCT250,0.00,60.00,VWS V14.01,2013-09-07 21:58:00,
2013-09-07 18:00:00,73.8,60.0,30.00,SSE,149,3.0,4.0,62,0.00,,FEW070,0.00,60.00,VWS V14.01,2013-09-07 22:00:00,
2013-09-07 18:03:00,73.7,59.9,30.00,SSE,162,4.0,6.0,62,0.00,,BKN250,0.00,49.00,VWS V14.01,2013-09-07 22:03:00,
2013-09-07 18:05:00,73.6,59.8,30.00,SSE,160,2.0,4.0,62,0.00,,FEW070,0.00,56.00,VWS V14.01,2013-09-07 22:05:00,
2013-09-07 18:08:00,73.5,59.7,30.00,SSE,159,3.0,6.0,62,0.00,,BKN250,0.00,42.00,VWS V14.01,2013-09-07 22:08:00,
2013-09-07 18:10:00,73.4,60.0,30.00,SE,140,7.0,8.0,63,0.00,,FEW070,0.00,42.00,VWS V14.01,2013-09-07 22:10:00,
2013-09-07 18:13:00,73.4,60.0,30.00,SSE,152,6.0,7.0,63,0.00,,BKN250,0.00,42.00,VWS V14.01,2013-09-07 22:13:00,
2013-09-07 18:15:00,73.4,60.0,30.00,South,176,4.0,10.0,63,0.00,,FEW070,0.00,40.00,VWS V14.01,2013-09-07 22:15:00,
2013-09-07 18:18:00,73.3,60.0,30.00,SSE,150,3.0,5.0,63,0.00,,BKN250,0.00,40.00,VWS V14.01,2013-09-07 22:18:00,
2013-09-07 18:20:00,73.2,59.9,30.00,SSE,165,6.0,6.0,63,0.00,,FEW070,0.00,42.00,VWS V14.01,2013-09-07 22:20:00,
2013-09-07 18:23:00,73.0,59.7,30.00,SSE,152,6.0,7.0,63,0.00,,BKN250,0.00,49.00,VWS V14.01,2013-09-07 22:23:00,
2013-09-07 18:25:00,72.9,59.6,30.00,SE,146,0.0,7.0,63,0.00,,FEW070,0.00,53.00,VWS V14.01,2013-09-07 22:25:00,
2013-09-07 18:28:00,72.8,59.9,30.00,SE,144,3.0,6.0,64,0.00,,BKN250,0.00,46.00,VWS V14.01,2013-09-07 22:28:00,
2013-09-07 18:30:00,72.7,59.8,30.00,SE,146,2.0,3.0,64,0.00,,FEW070,0.00,35.00,VWS V14.01,2013-09-07 22:30:00,
2013-09-07 18:33:00,72.6,59.7,30.00,SSE,157,5.0,6.0,64,0.00,,BKN250,0.00,33.00,VWS V14.01,2013-09-07 22:33:00,
2013-09-07 18:35:00,72.5,59.6,30.00,SSE,162,4.0,4.0,64,0.00,,FEW070,0.00,33.00,VWS V14.01,2013-09-07 22:35:00,
2013-09-07 18:38:00,72.4,59.5,30.00,SSE,162,4.0,7.0,64,0.00,,BKN250,0.00,30.00,VWS V14.01,2013-09-07 22:38:00,
2013-09-07 18:40:00,72.3,59.5,30.00,South,175,4.0,9.0,64,0.00,,FEW070,0.00,30.00,VWS V14.01,2013-09-07 22:40:00,
2013-09-07 18:43:00,72.3,59.5,30.00,South,169,6.0,6.0,64,0.00,,BKN250,0.00,28.00,VWS V14.01,2013-09-07 22:43:00,
2013-09-07 18:45:00,72.3,59.9,30.00,SE,136,2.0,4.0,65,0.00,,FEW070,0.00,26.00,VWS V14.01,2013-09-07 22:45:00,
2013-09-07 18:48:00,72.2,60.2,30.00,SSE,165,2.0,6.0,66,0.00,,BKN250,0.00,23.00,VWS V14.01,2013-09-07 22:48:00,
2013-09-07 18:50:00,72.1,59.7,30.00,SSE,148,7.0,7.0,65,0.00,,FEW070,0.00,21.00,VWS V14.01,2013-09-07 22:50:00,
2013-09-07 18:53:00,71.9,59.9,29.99,ESE,123,2.0,3.0,66,0.00,,BKN250,0.00,19.00,VWS V14.01,2013-09-07 22:53:00,
2013-09-07 18:55:00,71.9,59.9,29.99,SSE,156,6.0,6.0,66,0.00,,FEW070,0.00,19.00,VWS V14.01,2013-09-07 22:55:00,
2013-09-07 18:58:00,71.7,59.8,29.99,SSE,150,4.0,5.0,66,0.00,,BKN250,0.00,18.00,VWS V14.01,2013-09-07 22:58:00,
2013-09-07 19:00:00,71.7,59.8,29.99,South,171,3.0,5.0,66,0.00,,FEW070,0.00,16.00,VWS V14.01,2013-09-07 23:00:00,
2013-09-07 19:03:00,71.5,59.6,30.00,South,178,3.0,7.0,66,0.00,,BKN250,0.00,14.00,VWS V14.01,2013-09-07 23:03:00,
2013-09-07 19:05:00,71.5,59.6,30.00,South,177,2.0,5.0,66,0.00,,FEW070,0.00,14.00,VWS V14.01,2013-09-07 23:05:00,
2013-09-07 19:08:00,71.3,59.8,30.00,South,188,3.0,3.0,67,0.00,,BKN250,0.00,12.00,VWS V14.01,2013-09-07 23:08:00,
2013-09-07 19:10:00,71.2,59.7,30.00,South,169,2.0,3.0,67,0.00,,FEW070,0.00,12.00,VWS V14.01,2013-09-07 23:10:00,
2013-09-07 19:13:00,71.0,59.9,30.00,South,169,3.0,4.0,68,0.00,,BKN250,0.00,11.00,VWS V14.01,2013-09-07 23:13:00,
2013-09-07 19:15:00,71.0,59.9,30.00,SSE,157,3.0,4.0,68,0.00,,FEW070,0.00,9.00,VWS V14.01,2013-09-07 23:15:00,
2013-09-07 19:18:00,70.8,59.7,30.00,South,169,1.0,3.0,68,0.00,,BKN250,0.00,7.00,VWS V14.01,2013-09-07 23:18:00,
2013-09-07 19:20:00,70.7,59.6,30.00,SSE,165,3.0,4.0,68,0.00,,FEW070,0.00,7.00,VWS V14.01,2013-09-07 23:20:00,
2013-09-07 19:23:00,70.6,60.0,30.00,South,175,2.0,3.0,69,0.00,,BKN250,0.00,5.00,VWS V14.01,2013-09-07 23:23:00,
2013-09-07 19:25:00,70.5,59.8,30.00,South,178,0.0,1.0,69,0.00,,FEW070,0.00,5.00,VWS V14.01,2013-09-07 23:25:00,
2013-09-07 19:28:00,70.3,60.1,30.00,SSE,159,2.0,3.0,70,0.00,,BKN250,0.00,0.00,VWS V14.01,2013-09-07 23:28:00,
2013-09-07 19:30:00,70.2,60.0,30.00,SSE,159,0.0,1.0,70,0.00,,FEW070,0.00,0.00,VWS V14.01,2013-09-07 23:30:00,
2013-09-07 19:33:00,70.0,59.8,30.00,SSE,159,1.0,1.0,70,0.00,,BKN250,0.00,0.00,VWS V14.01,2013-09-07 23:33:00,
2013-09-07 19:35:00,69.9,59.7,30.00,SSE,159,3.0,3.0,70,0.00,,FEW070,0.00,0.00,VWS V14.01,2013-09-07 23:35:00,
2013-09-07 19:38:00,69.7,59.9,30.00,SSE,159,1.0,1.0,71,0.00,,BKN250,0.00,0.00,VWS V14.01,2013-09-07 23:38:00,
2013-09-07 19:40:00,69.6,59.8,30.00,SSE,159,1.0,2.0,71,0.00,,FEW070,0.00,0.00,VWS V14.01,2013-09-07 23:40:00,
2013-09-07 19:43:00,69.3,59.9,30.00,SSE,159,2.0,2.0,72,0.00,,BKN250,0.00,0.00,VWS V14.01,2013-09-07 23:43:00,
2013-09-07 19:45:00,69.2,59.8,30.00,SSE,159,0.0,0.0,72,0.00,,FEW070,0.00,0.00,VWS V14.01,2013-09-07 23:45:00,
2013-09-07 19:48:00,69.0,60.0,30.00,SSE,159,0.0,0.0,73,0.00,,BKN250,0.00,0.00,VWS V14.01,2013-09-07 23:48:00,
2013-09-07 19:50:00,68.9,59.9,30.00,SSE,159,0.0,1.0,73,0.00,,FEW070,0.00,0.00,VWS V14.01,2013-09-07 23:50:00,
2013-09-07 19:53:00,68.7,60.1,30.00,SSE,159,0.0,2.0,74,0.00,,BKN250,0.00,0.00,VWS V14.01,2013-09-07 23:53:00,
2013-09-07 19:55:00,68.6,60.4,30.00,SSE,159,1.0,1.0,75,0.00,,FEW070,0.00,0.00,VWS V14.01,2013-09-07 23:55:00,
2013-09-07 19:58:00,68.5,60.6,30.00,South,169,1.0,3.0,76,0.00,,BKN250,0.00,0.00,VWS V14.01,2013-09-07 23:58:00,
2013-09-07 20:00:00,68.5,60.3,30.00,South,169,0.0,1.0,75,0.00,,FEW070,0.00,0.00,VWS V14.01,2013-09-08 00:00:00,
2013-09-07 20:02:00,68.4,60.5,30.00,SSE,158,1.0,1.0,76,0.00,,BKN250,0.00,0.00,VWS V14.01,2013-09-08 00:02:00,
2013-09-07 20:05:00,68.4,60.2,30.00,SSE,158,2.0,2.0,75,0.00,,FEW070,0.00,0.00,VWS V14.01,2013-09-08 00:05:00,
2013-09-07 20:07:00,68.3,60.1,30.00,SSE,158,1.0,1.0,75,0.00,,BKN250,0.00,0.00,VWS V14.01,2013-09-08 00:07:00,
2013-09-07 20:10:00,68.2,60.0,30.00,SSE,158,1.0,1.0,75,0.00,,FEW070,0.00,0.00,VWS V14.01,2013-09-08 00:10:00,
2013-09-07 20:12:00,68.3,60.5,30.00,SSE,158,1.0,2.0,76,0.00,,BKN250,0.00,0.00,VWS V14.01,2013-09-08 00:12:00,
2013-09-07 20:15:00,68.3,60.5,30.00,SSE,158,0.0,1.0,76,0.00,,FEW070,0.00,0.00,VWS V14.01,2013-09-08 00:15:00,
2013-09-07 20:17:00,68.3,60.5,30.00,SSE,158,0.0,1.0,76,0.00,,BKN250,0.00,0.00,VWS V14.01,2013-09-08 00:17:00,
2013-09-07 20:20:00,68.2,60.7,30.00,SSE,158,1.0,2.0,77,0.00,,FEW070,0.00,0.00,VWS V14.01,2013-09-08 00:20:00,
2013-09-07 20:22:00,67.9,61.2,30.00,SSE,166,1.0,2.0,79,0.00,,BKN250,0.00,0.00,VWS V14.01,2013-09-08 00:22:00,
2013-09-07 20:25:00,67.7,61.0,30.00,SSE,166,1.0,1.0,79,0.00,,FEW070,0.00,0.00,VWS V14.01,2013-09-08 00:25:00,
2013-09-07 20:27:00,67.5,60.8,30.00,SSE,166,0.0,1.0,79,0.00,,BKN250,0.00,0.00,VWS V14.01,2013-09-08 00:27:00,
2013-09-07 20:30:00,67.3,60.6,30.00,SSE,166,0.0,1.0,79,0.00,,FEW070,0.00,0.00,VWS V14.01,2013-09-08 00:30:00,
2013-09-07 20:32:00,67.0,60.6,30.00,SSE,166,0.0,2.0,80,0.00,,BKN250,0.00,0.00,VWS V14.01,2013-09-08 00:32:00,
2013-09-07 20:35:00,67.0,60.6,30.00,SSE,166,1.0,2.0,80,0.00,,FEW070,0.00,0.00,VWS V14.01,2013-09-08 00:35:00,
2013-09-07 20:37:00,66.9,60.5,30.00,South,180,1.0,3.0,80,0.00,,BKN250,0.00,0.00,VWS V14.01,2013-09-08 00:37:00,
2013-09-07 20:40:00,67.0,61.0,30.00,South,187,1.0,3.0,81,0.00,,FEW070,0.00,0.00,VWS V14.01,2013-09-08 00:40:00,
2013-09-07 20:42:00,66.9,60.9,30.00,South,187,1.0,2.0,81,0.00,,BKN250,0.00,0.00,VWS V14.01,2013-09-08 00:42:00,
2013-09-07 20:45:00,66.8,60.4,30.00,South,187,1.0,2.0,80,0.00,,FEW070,0.00,0.00,VWS V14.01,2013-09-08 00:45:00,
2013-09-07 20:47:00,66.7,60.7,30.00,South,187,2.0,2.0,81,0.00,,BKN250,0.00,0.00,VWS V14.01,2013-09-08 00:47:00,
2013-09-07 20:50:00,66.6,60.2,30.00,South,182,1.0,4.0,80,0.00,,FEW070,0.00,0.00,VWS V14.01,2013-09-08 00:50:00,
2013-09-07 20:52:00,66.6,60.2,30.00,South,182,1.0,2.0,80,0.00,,BKN250,0.00,0.00,VWS V14.01,2013-09-08 00:52:00,
2013-09-07 20:55:00,66.6,60.2,30.00,South,182,1.0,1.0,80,0.00,,FEW070,0.00,0.00,VWS V14.01,2013-09-08 00:55:00,
2013-09-07 20:57:00,66.5,60.2,30.00,South,182,1.0,2.0,80,0.00,,BKN250,0.00,0.00,VWS V14.01,2013-09-08 00:57:00,
2013-09-07 21:00:00,66.5,60.2,30.00,South,182,1.0,3.0,80,0.00,,FEW070,0.00,0.00,VWS V14.01,2013-09-08 01:00:00,
2013-09-07 21:02:00,66.6,59.9,30.00,South,173,2.0,3.0,79,0.00,,BKN250,0.00,0.00,VWS V14.01,2013-09-08 01:02:00,
2013-09-07 21:05:00,66.8,60.1,30.00,South,182,3.0,4.0,79,0.00,,FEW070,0.00,0.00,VWS V14.01,2013-09-08 01:05:00,
2013-09-07 21:07:00,67.0,60.3,30.00,South,182,0.0,1.0,79,0.00,,BKN250,0.00,0.00,VWS V14.01,2013-09-08 01:07:00,
2013-09-07 21:10:00,67.0,60.3,30.00,South,182,0.0,0.0,79,0.00,,OVC220,0.00,0.00,VWS V14.01,2013-09-08 01:10:00,
2013-09-07 21:12:00,66.8,60.1,30.00,South,182,0.0,1.0,79,0.00,,BKN250,0.00,0.00,VWS V14.01,2013-09-08 01:12:00,
2013-09-07 21:15:00,66.7,60.0,30.00,South,182,0.0,1.0,79,0.00,,FEW070,0.00,0.00,VWS V14.01,2013-09-08 01:15:00,
2013-09-07 21:17:00,66.5,60.2,30.00,South,182,0.0,2.0,80,0.00,,BKN250,0.00,0.00,VWS V14.01,2013-09-08 01:17:00,
2013-09-07 21:20:00,66.4,60.0,30.00,South,182,0.0,2.0,80,0.00,,FEW070,0.00,0.00,VWS V14.01,2013-09-08 01:20:00,
2013-09-07 21:22:00,66.3,60.0,30.00,South,182,0.0,1.0,80,0.00,,BKN250,0.00,0.00,VWS V14.01,2013-09-08 01:22:00,
2013-09-07 21:25:00,66.2,59.9,30.00,South,182,0.0,0.0,80,0.00,,FEW070,0.00,0.00,VWS V14.01,2013-09-08 01:25:00,
2013-09-07 21:27:00,66.2,59.9,30.00,South,182,0.0,1.0,80,0.00,,BKN250,0.00,0.00,VWS V14.01,2013-09-08 01:27:00,
2013-09-07 21:30:00,66.1,59.8,30.00,South,182,0.0,1.0,80,0.00,,FEW070,0.00,0.00,VWS V14.01,2013-09-08 01:30:00,
2013-09-07 21:32:00,66.0,60.0,30.00,South,182,0.0,1.0,81,0.00,,BKN250,0.00,0.00,VWS V14.01,2013-09-08 01:32:00,
2013-09-07 21:35:00,65.9,59.9,30.00,South,182,2.0,2.0,81,0.00,,FEW070,0.00,0.00,VWS V14.01,2013-09-08 01:35:00,
2013-09-07 21:37:00,65.8,59.8,30.00,South,182,2.0,3.0,81,0.00,,BKN250,0.00,0.00,VWS V14.01,2013-09-08 01:37:00,
2013-09-07 21:40:00,65.8,59.8,30.00,South,182,1.0,1.0,81,0.00,,FEW070,0.00,0.00,VWS V14.01,2013-09-08 01:40:00,
2013-09-07 21:42:00,65.6,60.0,30.00,South,182,0.0,1.0,82,0.00,,BKN250,0.00,0.00,VWS V14.01,2013-09-08 01:42:00,
2013-09-07 21:45:00,65.5,59.9,30.00,South,182,1.0,2.0,82,0.00,,FEW070,0.00,0.00,VWS V14.01,2013-09-08 01:45:00,
2013-09-07 21:47:00,65.4,59.8,30.00,South,182,1.0,2.0,82,0.00,,BKN250,0.00,0.00,VWS V14.01,2013-09-08 01:47:00,
2013-09-07 21:50:00,65.3,60.0,30.00,South,182,2.0,3.0,83,0.00,,FEW070,0.00,0.00,VWS V14.01,2013-09-08 01:50:00,
2013-09-07 21:52:00,65.2,59.9,30.00,South,182,1.0,2.0,83,0.00,,BKN250,0.00,0.00,VWS V14.01,2013-09-08 01:52:00,
2013-09-07 21:55:00,65.2,60.2,30.00,South,182,2.0,2.0,84,0.00,,FEW070,0.00,0.00,VWS V14.01,2013-09-08 01:55:00,
2013-09-07 21:57:00,65.1,60.2,30.00,South,182,1.0,2.0,84,0.00,,BKN250,0.00,0.00,VWS V14.01,2013-09-08 01:57:00,
2013-09-07 22:00:00,65.1,60.2,30.00,South,182,1.0,1.0,84,0.00,,FEW070,0.00,0.00,VWS V14.01,2013-09-08 02:00:00,
2013-09-07 22:02:00,65.0,60.0,30.00,South,182,2.0,3.0,84,0.00,,SCT250,0.00,0.00,VWS V14.01,2013-09-08 02:02:00,
2013-09-07 22:05:00,64.9,60.0,30.00,South,182,1.0,1.0,84,0.00,,FEW070,0.00,0.00,VWS V14.01,2013-09-08 02:05:00,
2013-09-07 22:07:00,64.9,60.0,30.00,South,182,1.0,2.0,84,0.00,,SCT250,0.00,0.00,VWS V14.01,2013-09-08 02:07:00,
2013-09-07 22:10:00,64.9,60.0,30.00,South,182,0.0,2.0,84,0.00,,FEW070,0.00,0.00,VWS V14.01,2013-09-08 02:10:00,
2013-09-07 22:12:00,64.8,59.9,29.99,South,182,2.0,2.0,84,0.00,,SCT250,0.00,0.00,VWS V14.01,2013-09-08 02:12:00,
2013-09-07 22:15:00,64.7,59.8,29.99,South,182,1.0,1.0,84,0.00,,FEW070,0.00,0.00,VWS V14.01,2013-09-08 02:15:00,
2013-09-07 22:17:00,64.7,59.8,29.99,South,182,0.0,0.0,84,0.00,,SCT250,0.00,0.00,VWS V14.01,2013-09-08 02:17:00,
2013-09-07 22:20:00,64.7,59.8,29.99,South,182,1.0,1.0,84,0.00,,FEW070,0.00,0.00,VWS V14.01,2013-09-08 02:20:00,
2013-09-07 22:22:00,64.8,59.9,29.99,South,182,1.0,2.0,84,0.00,,SCT250,0.00,0.00,VWS V14.01,2013-09-08 02:22:00,
2013-09-07 22:25:00,64.8,59.9,29.99,South,182,1.0,2.0,84,0.00,,FEW070,0.00,0.00,VWS V14.01,2013-09-08 02:25:00,
2013-09-07 22:27:00,64.8,59.9,29.99,South,182,1.0,1.0,84,0.00,,SCT250,0.00,0.00,VWS V14.01,2013-09-08 02:27:00,
2013-09-07 22:30:00,64.8,59.9,29.99,South,182,0.0,1.0,84,0.00,,FEW070,0.00,0.00,VWS V14.01,2013-09-08 02:30:00,
2013-09-07 22:32:00,64.7,59.8,29.99,South,182,1.0,2.0,84,0.00,,SCT250,0.00,0.00,VWS V14.01,2013-09-08 02:32:00,
2013-09-07 22:35:00,64.7,59.8,29.99,South,182,1.0,2.0,84,0.00,,FEW070,0.00,0.00,VWS V14.01,2013-09-08 02:35:00,
2013-09-07 22:37:00,64.9,60.0,29.99,South,182,1.0,1.0,84,0.00,,SCT250,0.00,0.00,VWS V14.01,2013-09-08 02:37:00,
2013-09-07 22:40:00,64.9,60.0,29.99,South,182,1.0,2.0,84,0.00,,FEW070,0.00,0.00,VWS V14.01,2013-09-08 02:40:00,
2013-09-07 22:42:00,64.8,60.2,29.99,South,182,0.0,0.0,85,0.00,,SCT250,0.00,0.00,VWS V14.01,2013-09-08 02:42:00,
2013-09-07 22:45:00,64.7,60.1,29.99,South,182,0.0,0.0,85,0.00,,FEW070,0.00,0.00,VWS V14.01,2013-09-08 02:45:00,
2013-09-07 22:47:00,64.5,59.9,29.99,South,182,1.0,1.0,85,0.00,,SCT250,0.00,0.00,VWS V14.01,2013-09-08 02:47:00,
2013-09-07 22:50:00,64.4,59.8,29.99,South,182,0.0,0.0,85,0.00,,FEW070,0.00,0.00,VWS V14.01,2013-09-08 02:50:00,
2013-09-07 22:52:00,64.4,59.8,29.99,South,182,1.0,2.0,85,0.00,,SCT250,0.00,0.00,VWS V14.01,2013-09-08 02:52:00,
2013-09-07 22:55:00,64.3,59.7,29.99,South,182,0.0,1.0,85,0.00,,OVC220,0.00,0.00,VWS V14.01,2013-09-08 02:55:00,
2013-09-07 22:57:00,64.2,59.6,29.99,South,182,1.0,2.0,85,0.00,,SCT250,0.00,0.00,VWS V14.01,2013-09-08 02:57:00,
2013-09-07 23:00:00,64.1,59.8,29.99,South,182,0.0,1.0,86,0.00,,FEW070,0.00,0.00,VWS V14.01,2013-09-08 03:00:00,
2013-09-07 23:02:00,64.0,60.1,29.99,South,182,0.0,0.0,87,0.00,,FEW250,0.00,0.00,VWS V14.01,2013-09-08 03:02:00,
2013-09-07 23:05:00,63.9,60.0,29.99,South,182,1.0,1.0,87,0.00,,FEW070,0.00,0.00,VWS V14.01,2013-09-08 03:05:00,
2013-09-07 23:07:00,63.8,60.2,29.98,South,182,1.0,1.0,88,0.00,,FEW250,0.00,0.00,VWS V14.01,2013-09-08 03:07:00,
2013-09-07 23:10:00,63.7,60.1,29.98,South,182,1.0,1.0,88,0.00,,FEW070,0.00,0.00,VWS V14.01,2013-09-08 03:10:00,
2013-09-07 23:12:00,63.6,60.0,29.99,South,182,0.0,2.0,88,0.00,,FEW250,0.00,0.00,VWS V14.01,2013-09-08 03:12:00,
2013-09-07 23:15:00,63.6,60.0,29.99,South,182,2.0,2.0,88,0.00,,FEW070,0.00,0.00,VWS V14.01,2013-09-08 03:15:00,
2013-09-07 23:17:00,63.6,60.0,29.99,South,182,1.0,2.0,88,0.00,,FEW250,0.00,0.00,VWS V14.01,2013-09-08 03:17:00,
2013-09-07 23:20:00,63.6,59.7,29.99,South,182,2.0,2.0,87,0.00,,FEW070,0.00,0.00,VWS V14.01,2013-09-08 03:20:00,
2013-09-07 23:22:00,63.6,60.0,29.98,South,182,2.0,2.0,88,0.00,,FEW250,0.00,0.00,VWS V14.01,2013-09-08 03:22:00,
2013-09-07 23:25:00,63.5,59.9,29.98,South,182,0.0,1.0,88,0.00,,FEW070,0.00,0.00,VWS V14.01,2013-09-08 03:25:00,
2013-09-07 23:27:00,63.5,59.9,29.98,South,182,0.0,2.0,88,0.00,,FEW250,0.00,0.00,VWS V14.01,2013-09-08 03:27:00,
2013-09-07 23:30:00,63.4,59.8,29.98,South,182,0.0,1.0,88,0.00,,FEW070,0.00,0.00,VWS V14.01,2013-09-08 03:30:00,
2013-09-07 23:32:00,63.3,59.7,29.98,South,182,1.0,1.0,88,0.00,,FEW250,0.00,0.00,VWS V14.01,2013-09-08 03:32:00,
2013-09-07 23:35:00,63.3,59.7,29.98,South,182,2.0,2.0,88,0.00,,FEW070,0.00,0.00,VWS V14.01,2013-09-08 03:35:00,
2013-09-07 23:37:00,63.3,59.7,29.98,South,182,1.0,2.0,88,0.00,,FEW250,0.00,0.00,VWS V14.01,2013-09-08 03:37:00,
2013-09-07 23:40:00,63.3,59.7,29.98,South,182,0.0,1.0,88,0.00,,FEW070,0.00,0.00,VWS V14.01,2013-09-08 03:40:00,
2013-09-07 23:42:00,63.3,59.7,29.98,South,182,2.0,2.0,88,0.00,,FEW250,0.00,0.00,VWS V14.01,2013-09-08 03:42:00,
2013-09-07 23:45:00,63.2,59.6,29.98,South,182,2.0,2.0,88,0.00,,FEW070,0.00,0.00,VWS V14.01,2013-09-08 03:45:00,
2013-09-07 23:47:00,63.4,59.8,29.98,South,182,1.0,3.0,88,0.00,,FEW250,0.00,0.00,VWS V14.01,2013-09-08 03:47:00,
2013-09-07 23:50:00,63.4,59.8,29.98,South,182,2.0,2.0,88,0.00,,FEW070,0.00,0.00,VWS V14.01,2013-09-08 03:50:00,
2013-09-07 23:52:00,63.5,60.2,29.98,South,182,0.0,1.0,89,0.00,,FEW250,0.00,0.00,VWS V14.01,2013-09-08 03:52:00,
2013-09-07 23:55:00,63.5,60.2,29.98,South,182,2.0,2.0,89,0.00,,FEW070,0.00,0.00,VWS V14.01,2013-09-08 03:55:00,
2013-09-07 23:57:00,63.5,60.2,29.98,South,188,1.0,2.0,89,0.00,,FEW250,0.00,0.00,VWS V14.01,2013-09-08 03:57:00,